STARLINK-3257, 50203

Orbit data source: Space-Track

STARLINK-3257, 50203 is a payload satellite owned by SpaceX/Seattle (US) in LEO that was launched on Sat, 18 Dec 2021 UTC via an FALCON 9 launch vehicle from the Air Force Western Test Range (AFWTR). Payload-class satellites include a variety of spacecraft equipped with specific instruments for various scientific and technological missions. These include communications satellites like Starlink; space stations such as the ISS; scientific satellites like the Hubble; Earth observation satellites from companies like Planet Labs, Umbra, and HawkEye 360; GPS; miniature CubeSats for education and research; and military/defense satellites.

Loading next visibility...
Identifier
50203, 2021-125AZ
Orbit
LEO
Country
Flag of USUS
Related business
Manufacturer
SpaceX/Seattle
Mission
Operational Commercial Communications
Bus & Motor
STARLINK, Unknown motor
Mass
290 kg wet, ~270 kg dry
Launch date (UTC)
2021-12-18 (5 years ago)
Launch vehicle
FALCON 9
Launch site
Air Force Western Test Range (AFWTR)
Object type
Payload
Rocket body
Debris
Shape & HBR
Box + 1 Pan, 10.1 m
Radar Cross Section
13.562 m², Large (>1 m²)

Expand to show TLE details & history
Last TLE update: 2 days ago

TLE from 2 days ago
0 STARLINK-3257
1 50203U 21125AZ  26171.22952777  .00000071  00000-0  22555-4 0  9990
2 50203  53.1606 138.7770 0001274  89.1380 270.9757 15.08831653252274
Epoch: 2026-06-20T05:30Z
TLE epoch observation values (Epoch: 2026-06-20T05:30:31.199Z)
Latitude
-0.00005°
Longitude
147.69983°
Altitude
540.645 km
Speed
7.593 km/s
True Right ascension
09h 15m 06s
True Declination
0° 00' 00"
Sunlit
Object was in daylight at epoch
Visualization orbit readout
Latitude
Unknown
Longitude
Unknown
Altitude
Unknown
Speed
Unknown
Apparent Right ascension
Unknown
Apparent Declination
Unknown
Sunlit
N/A
Visualization observer readout
Local Sidereal Time
21:34:37
Azimuth
Unknown
Elevation
Unknown
Doppler factor
Unknown
Orbital elements
Apogee altitude
540.904 km
Perigee altitude
539.142 km
Semi-major axis
6,918.16 km
Eccentricity
0.00013
Inclination
53.1606°
RAAN
138.777°
Arg. of periapsis
89.138°
True anomaly
270.9611°
Mean anomaly
270.9757°
Eccentric anomaly
270.9684°
Mean motion
3.77187 °/min
Orbital period
95.44 mins
BSTAR
0.000022555
Loading maneuver chart data...
Computing Atmospheric mass density...
Loading historical data...
Loading historical data...
Loading historical data...
Loading historical data...
Loading historical data...
Loading historical data...
Loading historical data...

Documentation

Showing up to 5 results
|